Location: Hopkins Observatory
(42.6965°N, 73.1843°W)
Time: 20:32:58
(UTC-04:00)

Amateur Radio Satellites - All Passes

Search period start: 24 July 2017 20:02
Search period end: 25 July 2017 20:02
Location: Hopkins Observatory, 42.6965°N, 73.1843°W

Satellite Date Start Highest point End Downlink Frequencies (MHz)
Time Altitude Azimuth
CUTE-I 24 Jul 20:10:23 20:11:15 10° 273° (W) 20:12:07 437.470
ZACube-1 24 Jul 20:11:59 20:16:18 52° 73° (ENE) 20:20:33 437.345
nSIGHT-1 24 Jul 20:14:12 20:15:48 13° 131° (SE) 20:17:24 .
AO-85 24 Jul 20:16:04 20:18:29 15° 40° (NE) 20:20:59 145.980
AAUSAT CUBESAT 2 24 Jul 20:23:06 20:27:10 66° 259° (W) 20:31:17 437.432
CUBEBUG 2 24 Jul 20:34:26 20:38:37 32° 264° (W) 20:42:46 437.445
Oscar 11 24 Jul 20:39:07 20:43:23 69° 75° (ENE) 20:47:41 .
YUBILEINY 24 Jul 20:51:43 20:59:18 31° 292° (WNW) 21:06:57 435.215
AO-73 24 Jul 20:52:27 20:56:52 64° 259° (W) 21:01:11 145.935
HO-68 24 Jul 21:03:18 21:08:01 18° 270° (W) 21:12:46 435.675
ISS 24 Jul 21:06:08 21:09:12 40° 140° (SE) 21:12:17 437.550
STRAND 1 24 Jul 21:06:58 21:11:49 44° 291° (WNW) 21:16:37 437.568
FO-29 24 Jul 21:11:33 21:16:24 19° 86° (E) 21:20:54 435.910
BEESAT 3 24 Jul 21:22:38 21:26:31 45° 52° (NE) 21:30:19 437.485
RS-15 24 Jul 21:29:04 21:38:48 26° 6° (N) 21:48:19 29.354- 29.394
DELFI C3 24 Jul 21:30:04 21:33:57 63° 74° (ENE) 21:37:52 145.870
Tancredo 1 24 Jul 21:35:54 21:38:41 39° 333° (NNW) 21:41:29 437.200
UWE-3 24 Jul 21:36:06 21:38:08 13° 270° (W) 21:40:09 435.000/436.395/437.385
nSIGHT-1 24 Jul 21:48:34 21:51:48 76° 329° (NNW) 21:55:02 .
ZACube-1 24 Jul 21:50:17 21:52:51 15° 269° (W) 21:55:24 437.345
TIGRISAT 24 Jul 21:54:30 21:57:08 16° 91° (E) 21:59:43 435.000
AO-85 24 Jul 21:55:08 21:59:21 81° 238° (WSW) 22:03:51 145.980
BEESAT 2 24 Jul 22:01:19 22:05:12 40° 51° (NE) 22:09:01 435.950
EO-88 24 Jul 22:04:11 22:07:49 78° 258° (WSW) 22:11:28 145.990 - 145.960
LO-87 24 Jul 22:11:22 22:13:38 16° 66° (ENE) 22:15:55 145.935 - 145.965
M-CUBED/EXP-1 PRIME 24 Jul 22:18:00 22:18:59 11° 94° (E) 22:19:58 437.505
Oscar 11 24 Jul 22:19:01 22:19:59 11° 271° (W) 22:20:57 .
ISS 24 Jul 22:42:45 22:45:43 32° 337° (NNW) 22:48:42 437.550
UNISAT 6 24 Jul 22:45:23 22:49:43 62° 101° (E) 22:53:55 437.425
PRISM 24 Jul 22:50:20 22:54:28 57° 101° (E) 22:58:33 437.425
FO-29 24 Jul 22:55:05 23:02:19 75° 287° (WNW) 23:08:40 435.910
BEESAT 3 24 Jul 23:01:07 23:03:44 17° 249° (WSW) 23:06:17 437.485
Tancredo 1 24 Jul 23:12:48 23:14:41 15° 353° (N) 23:16:34 437.200
ESTCUBE 1 24 Jul 23:17:08 23:21:32 61° 73° (ENE) 23:25:59 437.505/2401.250
SPROUT 24 Jul 23:23:32 23:26:33 19° 65° (ENE) 23:29:34 437.525
nSIGHT-1 24 Jul 23:26:05 23:28:36 21° 346° (NNW) 23:31:08 .
QB50P2 24 Jul 23:29:11 23:30:04 11° 89° (E) 23:30:56 145.880/145.840
TIGRISAT 24 Jul 23:29:56 23:34:05 46° 288° (WNW) 23:38:10 435.000
BEESAT 2 24 Jul 23:39:43 23:42:40 20° 248° (WSW) 23:45:36 435.950
EO-79 24 Jul 23:40:19 23:42:20 13° 90° (E) 23:44:23 145.935-145.965
NANOSAT C BR1 24 Jul 23:40:58 23:42:34 12° 90° (E) 23:44:09 145.865
LO-87 24 Jul 23:43:27 23:46:47 34° 262° (W) 23:50:09 145.935 - 145.965
RS-15 24 Jul 23:43:53 23:55:32 46° 39° (NE) 00:06:36 29.354- 29.394
M-CUBED/EXP-1 PRIME 24 Jul 23:49:15 23:53:52 86° 292° (WNW) 23:58:32 437.505
VELOX 1 25 Jul 00:04:32 00:08:43 44° 71° (ENE) 00:12:58 145.980
DX 1 25 Jul 00:12:33 00:15:30 18° 64° (ENE) 00:18:28 434.975-435.025
AIST 2D 25 Jul 00:19:47 00:23:17 83° 283° (WNW) 00:26:46 435.315
ISS 25 Jul 00:20:41 00:22:55 17° 357° (N) 00:25:09 437.550
UNISAT 6 25 Jul 00:23:48 00:25:53 13° 298° (WNW) 00:27:57 437.425
PRISM 25 Jul 00:27:08 00:29:15 14° 298° (WNW) 00:31:23 437.425
FO-29 25 Jul 00:42:03 00:45:58 16° 309° (NW) 00:49:40 435.910
DUCHIFAT 1 25 Jul 00:47:03 00:51:11 59° 100° (E) 00:55:17 145.980
Tancredo 1 25 Jul 00:48:47 00:50:55 18° 13° (NNE) 00:53:02 437.200
50 SAT 25 Jul 00:49:00 00:52:19 53° 74° (ENE) 00:55:40 437.505
POLYITAN 1 25 Jul 00:49:01 00:53:15 79° 103° (ESE) 00:57:26 437.675
UKube-1 25 Jul 00:54:47 00:58:36 32° 69° (ENE) 01:02:27 .
O/OREOS (USA 219) 25 Jul 00:54:56 00:59:14 43° 62° (ENE) 01:03:31 437.305
ESTCUBE 1 25 Jul 00:56:40 00:58:44 13° 270° (W) 01:00:50 437.505/2401.250
SPROUT 25 Jul 00:58:04 01:02:08 41° 262° (W) 01:06:14 437.525
QB50P2 25 Jul 01:02:06 01:06:18 67° 286° (WNW) 01:10:27 145.880/145.840
nSIGHT-1 25 Jul 01:03:35 01:05:51 17° 7° (N) 01:08:07 .
EO-79 25 Jul 01:14:19 01:18:26 54° 287° (WNW) 01:22:31 145.935-145.965
NANOSAT C BR1 25 Jul 01:14:31 01:18:39 59° 287° (WNW) 01:22:46 145.865
BUGSAT 1 25 Jul 01:17:17 01:21:03 35° 97° (E) 01:24:46 437.445
Oscar 19 25 Jul 01:25:14 01:29:00 20° 92° (E) 01:32:44 437.125/150
M-CUBED/EXP-1 PRIME 25 Jul 01:25:53 01:27:34 12° 305° (NW) 01:29:18 437.505
VELOX 1 25 Jul 01:42:22 01:45:23 18° 267° (W) 01:48:25 145.980
DX 1 25 Jul 01:47:09 01:51:19 46° 260° (W) 01:55:33 434.975-435.025
Gurwin Techsat 1B 25 Jul 01:48:54 01:52:56 22° 93° (E) 01:56:58 435.225
MOZHAYETS 4 25 Jul 01:51:29 01:52:02 10° 59° (ENE) 01:52:35
RS-15 25 Jul 01:56:48 02:08:39 65° 245° (WSW) 02:19:52 29.354- 29.394
ISS 25 Jul 01:57:27 02:00:12 24° 18° (NNE) 02:02:56 437.550
BEESAT 25 Jul 02:21:42 02:25:50 30° 67° (ENE) 02:29:59 436.000
Tancredo 1 25 Jul 02:23:47 02:26:44 67° 31° (NNE) 02:29:40 437.200
DUCHIFAT 1 25 Jul 02:24:19 02:26:21 13° 298° (WNW) 02:28:23 145.980
POLYITAN 1 25 Jul 02:27:37 02:28:23 10° 300° (WNW) 02:29:08 437.675
UKube-1 25 Jul 02:31:10 02:34:39 24° 265° (W) 02:38:09 .
ITUPSAT 1 25 Jul 02:34:26 02:38:51 39° 69° (ENE) 02:43:17 437.325
O/OREOS (USA 219) 25 Jul 02:35:09 02:38:18 19° 259° (W) 02:41:27 437.305
nSIGHT-1 25 Jul 02:39:47 02:42:53 41° 27° (NNE) 02:45:57 .
BUGSAT 1 25 Jul 02:53:11 02:56:10 20° 294° (WNW) 02:59:08 437.445
Oscar 19 25 Jul 03:03:35 03:08:35 52° 289° (WNW) 03:13:36 437.125/150
ITAMSAT 1 25 Jul 03:16:41 03:19:54 16° 91° (E) 03:23:05 435.822/435.867
MOZHAYETS 4 25 Jul 03:23:51 03:28:26 87° 76° (ENE) 03:33:03
Gurwin Techsat 1B 25 Jul 03:28:01 03:33:08 50° 290° (WNW) 03:38:15 435.225
ISS 25 Jul 03:33:41 03:36:56 73° 216° (SW) 03:40:11 437.550
AO-7 25 Jul 03:34:00 03:41:16 32° 96° (E) 03:48:28 .
CUBESAT XI-V 25 Jul 03:58:16 04:02:30 39° 71° (ENE) 04:06:48 437.345
BEESAT 25 Jul 03:59:21 04:03:32 30° 264° (W) 04:07:46 436.000
Tancredo 1 25 Jul 04:00:18 04:01:47 13° 228° (SW) 04:03:15 437.200
KKS-1 25 Jul 04:06:57 04:10:45 28° 67° (ENE) 04:14:35 437.445
ITUPSAT 1 25 Jul 04:12:58 04:16:46 23° 265° (W) 04:20:37 437.325
RS-15 25 Jul 04:13:33 04:18:23 13° 267° (W) 04:23:10 29.354- 29.394
nSIGHT-1 25 Jul 04:16:23 04:19:10 27° 223° (SW) 04:21:57 .
PCSat 25 Jul 04:35:33 04:40:07 28° 109° (ESE) 04:44:43 145.827
STARS 25 Jul 04:37:21 04:40:58 25° 66° (ENE) 04:44:36 437.465
ITAMSAT 1 25 Jul 04:54:38 04:59:47 64° 288° (WNW) 05:04:54 435.822/435.867
YUBILEINY 25 Jul 05:02:58 05:10:34 31° 68° (ENE) 05:18:03 435.215
AO-7 25 Jul 05:26:14 05:34:26 60° 295° (WNW) 05:42:33 .
DOVE 4 25 Jul 05:33:51 05:38:12 26° 93° (E) 05:42:26 437.250
CUBESAT XI-V 25 Jul 05:36:31 05:40:01 21° 267° (W) 05:43:31 437.345
KKS-1 25 Jul 05:43:21 05:47:14 29° 264° (W) 05:51:09 437.445
XW-2F 25 Jul 05:55:33 05:56:10 10° 90° (E) 05:56:47 145.980 - 146.000
STARS 25 Jul 06:13:10 06:17:09 32° 263° (W) 06:21:09 437.465
PCSat 25 Jul 06:18:08 06:23:18 44° 307° (NW) 06:28:30 145.827
XW-2D 25 Jul 06:22:03 06:25:10 24° 95° (E) 06:28:16 145.860 - 145.880
XW-2B 25 Jul 06:31:55 06:35:17 30° 97° (E) 06:38:38 145.730 - 145.750
SO-50 25 Jul 06:37:32 06:42:02 65° 120° (ESE) 06:46:31 436.795
CUTE-I 25 Jul 06:41:35 06:46:31 36° 97° (E) 06:51:24 437.470
HO-68 25 Jul 06:41:41 06:45:12 14° 87° (E) 06:48:40 435.675
STRAND 1 25 Jul 06:44:44 06:49:24 36° 68° (ENE) 06:54:05 437.568
XW-2C 25 Jul 06:49:02 06:52:42 51° 100° (E) 06:56:23 145.795 - 145.815
NUDT-PHONESAT 25 Jul 06:57:01 07:00:34 46° 99° (E) 07:04:07 437.300
YUBILEINY 25 Jul 06:59:18 07:07:52 60° 269° (W) 07:16:21 435.215
CUTE 1.7 + AOD 2 25 Jul 07:09:37 07:12:08 15° 91° (E) 07:14:40 437.475
DOVE 4 25 Jul 07:11:03 07:16:00 41° 290° (WNW) 07:20:46 437.250
KAITUO 1B 25 Jul 07:11:14 07:14:58 75° 102° (ESE) 07:18:41 145.475/437.950
LilacSat-2 25 Jul 07:12:18 07:16:06 75° 284° (WNW) 07:19:53 437.200
AO-7 25 Jul 07:21:14 07:25:29 15° 316° (NW) 07:29:45 .
SEEDS 25 Jul 07:22:18 07:24:19 13° 90° (E) 07:26:19 437.485
FO-29 25 Jul 07:25:59 07:29:27 14° 50° (NE) 07:32:57 435.910
XW-2F 25 Jul 07:26:57 07:30:37 54° 285° (WNW) 07:34:17 145.980 - 146.000
UWE-3 25 Jul 07:48:02 07:49:16 11° 89° (E) 07:50:29 435.000/436.395/437.385
XW-2D 25 Jul 07:56:15 07:59:15 23° 291° (WNW) 08:02:16 145.860 - 145.880
AAUSAT CUBESAT 2 25 Jul 08:05:07 08:08:00 18° 92° (E) 08:10:53 437.432
XW-2B 25 Jul 08:06:34 08:09:16 19° 293° (WNW) 08:11:57 145.730 - 145.750
PCSat 25 Jul 08:07:27 08:08:11 10° 329° (NNW) 08:08:55 145.827
XW-2A 25 Jul 08:14:47 08:18:01 46° 99° (E) 08:21:14 145.665 - 145.685
SO-50 25 Jul 08:19:37 08:22:54 19° 320° (NW) 08:26:11 436.795
CUTE-I 25 Jul 08:21:48 08:26:27 31° 294° (WNW) 08:31:04 437.470
CUBEBUG 2 25 Jul 08:24:05 08:28:14 50° 99° (E) 08:32:17 437.445
STRAND 1 25 Jul 08:24:12 08:28:36 28° 265° (W) 08:33:03 437.568
XW-2C 25 Jul 08:24:54 08:26:27 12° 296° (WNW) 08:28:00 145.795 - 145.815
HO-68 25 Jul 08:26:44 08:33:56 82° 105° (ESE) 08:41:06 435.675
Oscar 11 25 Jul 08:27:28 08:29:09 12° 89° (E) 08:30:51 .
NUDT-PHONESAT 25 Jul 08:32:25 08:34:04 13° 295° (WNW) 08:35:42 437.300
AO-73 25 Jul 08:40:13 08:43:25 21° 94° (E) 08:46:34 145.935
CUTE 1.7 + AOD 2 25 Jul 08:44:08 08:48:13 47° 287° (WNW) 08:52:18 437.475
TIGRISAT 25 Jul 08:53:42 08:56:46 18° 64° (ENE) 08:59:48 435.000
SEEDS 25 Jul 08:56:11 09:00:19 55° 287° (WNW) 09:04:27 437.485
YUBILEINY 25 Jul 09:02:21 09:02:39 10° 290° (WNW) 09:02:57 435.215
M-CUBED/EXP-1 PRIME 25 Jul 09:04:07 09:05:46 12° 55° (NE) 09:07:27 437.505
FO-29 25 Jul 09:05:23 09:12:51 58° 69° (ENE) 09:20:32 435.910
UWE-3 25 Jul 09:22:00 09:26:10 61° 286° (WNW) 09:30:14 435.000/436.395/437.385
ZACube-1 25 Jul 09:35:29 09:39:38 80° 286° (WNW) 09:43:46 437.345
AAUSAT CUBESAT 2 25 Jul 09:39:42 09:43:36 39° 289° (WNW) 09:47:29 437.432
PRISM 25 Jul 09:40:00 09:43:53 43° 71° (ENE) 09:47:49 437.425
UNISAT 6 25 Jul 09:44:13 09:48:47 60° 74° (ENE) 09:53:19 437.425
XW-2A 25 Jul 09:49:50 09:50:19 10° 296° (WNW) 09:50:48 145.665 - 145.685
Oscar 11 25 Jul 10:01:25 10:05:41 62° 286° (WNW) 10:09:56 .
CUBEBUG 2 25 Jul 10:01:56 10:04:25 15° 297° (WNW) 10:06:51 437.445
HO-68 25 Jul 10:15:44 10:20:52 22° 305° (NW) 10:25:58 435.675
AO-73 25 Jul 10:16:01 10:19:42 31° 290° (WNW) 10:23:21 145.935
QB50P2 25 Jul 10:23:36 10:23:55 10° 60° (ENE) 10:24:14 145.880/145.840
TIGRISAT 25 Jul 10:28:32 10:33:03 51° 260° (W) 10:37:32 435.000
EO-79 25 Jul 10:34:04 10:35:48 12° 62° (ENE) 10:37:33 145.935-145.965
NANOSAT C BR1 25 Jul 10:34:34 10:35:46 11° 61° (ENE) 10:37:00 145.865
M-CUBED/EXP-1 PRIME 25 Jul 10:36:01 10:39:36 59° 254° (WSW) 10:43:31 437.505
DELFI C3 25 Jul 10:40:39 10:44:42 86° 279° (W) 10:48:42 145.870
FO-29 25 Jul 10:51:28 10:58:08 32° 268° (W) 11:05:02 435.910
AIST 2D 25 Jul 10:54:38 10:57:50 35° 73° (ENE) 11:01:03 435.315
EO-88 25 Jul 11:05:35 11:09:13 65° 284° (WNW) 11:12:49 145.990 - 145.960
LO-87 25 Jul 11:10:13 11:12:33 16° 93° (E) 11:14:52 145.935 - 145.965
ESTCUBE 1 25 Jul 11:10:40 11:12:32 12° 90° (E) 11:14:23 437.505/2401.250
PRISM 25 Jul 11:16:53 11:19:23 16° 268° (W) 11:21:54 437.425
NO-84 25 Jul 11:18:22 11:21:20 60° 136° (SE) 11:24:33 435.350 FM
UNISAT 6 25 Jul 11:23:22 11:25:50 14° 269° (W) 11:28:19 437.425
DUCHIFAT 1 25 Jul 11:39:05 11:43:09 46° 72° (ENE) 11:47:13 145.980
POLYITAN 1 25 Jul 11:41:45 11:45:58 63° 74° (ENE) 11:50:12 437.675
QB50P2 25 Jul 11:54:45 11:59:02 84° 260° (W) 12:03:19 145.880/145.840
NANOSAT C BR1 25 Jul 12:06:37 12:10:52 76° 258° (WSW) 12:15:08 145.865
EO-79 25 Jul 12:06:45 12:11:00 68° 259° (W) 12:15:16 145.935-145.965
BUGSAT 1 25 Jul 12:07:24 12:11:03 28° 68° (ENE) 12:14:41 437.445
AO-85 25 Jul 12:11:13 12:14:26 24° 114° (ESE) 12:17:36 145.980
AIST 2D 25 Jul 12:29:28 12:31:11 13° 268° (W) 12:32:55 435.315
Oscar 19 25 Jul 12:42:35 12:47:04 32° 67° (ENE) 12:51:34 437.125/150
LO-87 25 Jul 12:42:50 12:46:04 31° 289° (WNW) 12:49:15 145.935 - 145.965
SPROUT 25 Jul 12:42:55 12:46:40 29° 96° (E) 12:50:23 437.525
ESTCUBE 1 25 Jul 12:45:16 12:49:46 67° 286° (WNW) 12:54:15 437.505/2401.250
AO-7 25 Jul 12:47:55 12:50:40 12° 40° (NE) 12:53:24 .
BEESAT 3 25 Jul 12:49:41 12:53:36 62° 120° (ESE) 12:57:36 437.485
NO-84 25 Jul 12:56:35 12:59:05 20° 337° (NNW) 13:01:44 435.350 FM
Gurwin Techsat 1B 25 Jul 13:10:24 13:15:15 38° 68° (ENE) 13:20:08 435.225
DUCHIFAT 1 25 Jul 13:16:29 13:19:03 16° 268° (W) 13:21:37 145.980
POLYITAN 1 25 Jul 13:20:37 13:22:08 12° 270° (W) 13:23:41 437.675
PCSat 25 Jul 13:21:57 13:26:43 30° 48° (NE) 13:31:26 145.827
SO-50 25 Jul 13:29:03 13:31:14 13° 35° (NE) 13:33:24 436.795
VELOX 1 25 Jul 13:29:39 13:34:09 81° 104° (ESE) 13:38:35 145.980
BEESAT 2 25 Jul 13:30:09 13:34:03 56° 120° (ESE) 13:38:02 435.950
DX 1 25 Jul 13:34:36 13:38:22 27° 96° (E) 13:42:07 434.975-435.025
50 SAT 25 Jul 13:42:40 13:46:01 47° 100° (E) 13:49:20 437.505
BUGSAT 1 25 Jul 13:42:49 13:46:21 26° 265° (W) 13:49:55 437.445
AO-85 25 Jul 13:51:06 13:54:41 31° 312° (NW) 13:58:13 145.980
RS-15 25 Jul 14:12:02 14:20:05 21° 98° (E) 14:28:11 29.354- 29.394
UKube-1 25 Jul 14:16:14 14:20:29 51° 100° (E) 14:24:41 .
SPROUT 25 Jul 14:18:57 14:22:27 25° 293° (WNW) 14:25:54 437.525
Oscar 19 25 Jul 14:21:47 14:26:20 32° 264° (W) 14:30:55 437.125/150
BEESAT 3 25 Jul 14:28:55 14:31:35 17° 319° (NW) 14:34:15 437.485
AO-7 25 Jul 14:33:30 14:41:22 48° 62° (ENE) 14:49:17 .
ITAMSAT 1 25 Jul 14:34:52 14:39:17 29° 65° (ENE) 14:43:42 435.822/435.867
NO-84 25 Jul 14:36:25 14:37:40 11° 359° (N) 14:38:57 435.350 FM
Gurwin Techsat 1B 25 Jul 14:50:40 14:55:15 29° 265° (W) 14:59:51 435.225
PCSat 25 Jul 15:05:07 15:10:16 45° 247° (WSW) 15:15:24 145.827
O/OREOS (USA 219) 25 Jul 15:07:56 15:12:09 43° 107° (ESE) 15:16:24 437.305
SO-50 25 Jul 15:07:58 15:12:30 71° 55° (NE) 15:17:04 436.795
VELOX 1 25 Jul 15:08:28 15:09:55 11° 300° (WNW) 15:11:22 145.980
BEESAT 2 25 Jul 15:09:21 15:12:09 18° 318° (NW) 15:14:59 435.950
DX 1 25 Jul 15:10:43 15:14:30 28° 292° (WNW) 15:18:15 434.975-435.025
50 SAT 25 Jul 15:17:22 15:18:18 11° 296° (WNW) 15:19:15 437.505
MOZHAYETS 4 25 Jul 15:18:54 15:22:09 19° 93° (E) 15:25:22
UKube-1 25 Jul 15:53:24 15:56:05 16° 297° (WNW) 15:58:45 .
BEESAT 25 Jul 15:57:47 16:02:31 62° 101° (ESE) 16:07:13 436.000
ITUPSAT 1 25 Jul 16:11:16 16:16:04 83° 104° (ESE) 16:20:49 437.325
ITAMSAT 1 25 Jul 16:13:44 16:18:34 38° 262° (W) 16:23:27 435.822/435.867
NO-84 25 Jul 16:13:47 16:16:21 18° 20° (NNE) 16:19:03 435.350 FM
RS-15 25 Jul 16:18:23 16:30:34 80° 119° (ESE) 16:42:56 29.354- 29.394
AO-7 25 Jul 16:26:27 16:34:12 41° 261° (W) 16:42:01 .
DOVE 4 25 Jul 16:39:35 16:43:42 27° 66° (ENE) 16:48:01 437.250
O/OREOS (USA 219) 25 Jul 16:48:21 16:51:45 21° 305° (NW) 16:55:09 437.305
SO-50 25 Jul 16:50:09 16:52:23 14° 251° (WSW) 16:54:39 436.795
MOZHAYETS 4 25 Jul 16:55:10 16:59:29 43° 289° (WNW) 17:03:48
XW-2D 25 Jul 17:05:01 17:07:03 14° 65° (ENE) 17:09:05 145.860 - 145.880
HO-68 25 Jul 17:12:57 17:16:16 14° 49° (NE) 17:19:34 435.675
XW-2B 25 Jul 17:14:31 17:17:04 17° 67° (ENE) 17:19:35 145.730 - 145.750
CUBESAT XI-V 25 Jul 17:30:36 17:35:18 88° 100° (E) 17:40:00 437.345
XW-2C 25 Jul 17:31:07 17:34:19 27° 70° (ENE) 17:37:30 145.795 - 145.815
KKS-1 25 Jul 17:32:42 17:37:03 48° 100° (E) 17:41:22 437.445
BEESAT 25 Jul 17:36:55 17:39:47 16° 299° (WNW) 17:42:37 436.000
NUDT-PHONESAT 25 Jul 17:37:11 17:40:09 23° 69° (ENE) 17:43:06 437.300
NO-84 25 Jul 17:50:34 17:54:23 66° 38° (NE) 17:58:28 435.350 FM
ITUPSAT 1 25 Jul 17:51:16 17:53:12 12° 301° (WNW) 17:55:08 437.325
KAITUO 1B 25 Jul 17:51:48 17:55:11 35° 72° (ENE) 17:58:36 145.475/437.950
LilacSat-2 25 Jul 17:54:30 17:58:11 56° 74° (ENE) 18:01:53 437.200
STARS 25 Jul 18:01:11 18:05:22 40° 99° (E) 18:09:30 437.465
CUTE-I 25 Jul 18:03:55 18:09:13 64° 72° (ENE) 18:14:33 437.470
CUTE 1.7 + AOD 2 25 Jul 18:03:56 18:05:46 13° 62° (ENE) 18:07:36 437.475
YUBILEINY 25 Jul 18:05:12 18:12:51 35° 84° (E) 18:20:30 435.215
XW-2F 25 Jul 18:07:58 18:11:41 74° 77° (ENE) 18:15:25 145.980 - 146.000
SEEDS 25 Jul 18:16:10 18:17:04 11° 61° (ENE) 18:17:58 437.485
DOVE 4 25 Jul 18:16:39 18:21:11 38° 264° (W) 18:25:58 437.250
RS-15 25 Jul 18:33:05 18:44:26 40° 325° (NW) 18:55:49 29.354- 29.394
XW-2D 25 Jul 18:37:19 18:40:53 42° 261° (W) 18:44:28 145.860 - 145.880
UWE-3 25 Jul 18:45:35 18:47:30 13° 62° (ENE) 18:49:23 435.000/436.395/437.385
XW-2A 25 Jul 18:47:18 18:49:40 18° 68° (ENE) 18:52:02 145.665 - 145.685
XW-2B 25 Jul 18:47:35 18:51:00 33° 263° (W) 18:54:26 145.730 - 145.750
HO-68 25 Jul 18:55:35 19:02:39 65° 69° (ENE) 19:09:45 435.675
AAUSAT CUBESAT 2 25 Jul 18:56:48 18:58:53 14° 63° (ENE) 19:00:59 437.432
STRAND 1 25 Jul 18:57:01 18:58:11 11° 88° (E) 18:59:21 437.568
XW-2C 25 Jul 19:05:39 19:08:30 20° 266° (W) 19:11:21 145.795 - 145.815
KKS-1 25 Jul 19:10:14 19:13:13 18° 297° (WNW) 19:16:12 437.445
CUBESAT XI-V 25 Jul 19:10:33 19:11:57 11° 301° (WNW) 19:13:20 437.345
NUDT-PHONESAT 25 Jul 19:11:00 19:13:58 23° 265° (W) 19:16:56 437.300
CUBEBUG 2 25 Jul 19:22:04 19:26:34 48° 72° (ENE) 19:30:59 437.445
Oscar 11 25 Jul 19:23:53 19:25:10 11° 61° (ENE) 19:26:27 .
KAITUO 1B 25 Jul 19:27:09 19:29:20 15° 268° (W) 19:31:31 145.475/437.950
NO-84 25 Jul 19:28:49 19:31:36 18° 233° (SW) 19:34:30 435.350 FM
LilacSat-2 25 Jul 19:32:22 19:32:48 10° 270° (W) 19:33:14 437.200
AO-73 25 Jul 19:36:25 19:39:38 20° 66° (ENE) 19:42:48 145.935
CUTE 1.7 + AOD 2 25 Jul 19:36:56 19:41:04 63° 259° (W) 19:45:15 437.475
STARS 25 Jul 19:38:11 19:41:25 20° 295° (WNW) 19:44:37 437.465
CUTE-I 25 Jul 19:46:17 19:49:42 17° 269° (W) 19:53:08 437.470
SEEDS 25 Jul 19:47:59 19:52:07 75° 258° (WSW) 19:56:18 437.485
